Date String (YYYY-MM-DD hh:mm:ss) UTC,Instrument flags,Ambient pressure (hPa),Sample flow (lpm),Bypass flow (lpm),Sample temperature (°C),Ambient temperature (°C),ASC tube jacket temperature (°C),LED temperature (°C),Box temperature (°C),Sample RH (%),Span deviation,Mass concentration (μg/m³),Mass concentration (μg/m³),Mass concentration (μg/m³)
DateTimeUTC,F1_M11,P_M11,Q1_M11,Q2_M11,T1_M11,T2_M11,T3_M11,T4_M11,T5_M11,U1_M11,ZSPAN_M11,X2_M11,X0_M11,X1_M11
2022-12-02 14:00:00,,0812.3,5.00,0.00,21.6,20.9,00.0,30.5,23.5,14.9,0000.0,0000.85,0002.75,0000.29
2022-12-02 14:01:00,,0812.3,5.00,0.00,21.6,20.7,00.0,30.5,23.5,14.8,0000.0,0000.83,0002.90,0000.30
2022-12-02 14:02:00,,0812.3,5.00,0.00,21.6,20.5,00.0,30.5,23.4,14.6,0000.0,0000.84,0002.80,0000.30
2022-12-02 14:03:00,,0812.4,5.00,0.00,21.6,20.4,00.0,30.5,23.4,14.8,0000.0,0000.83,0002.52,0000.29
2022-12-02 14:04:00,,0812.3,5.00,0.00,21.6,20.3,00.0,30.5,23.4,14.8,0000.0,0000.84,0002.57,0000.29
2022-12-02 14:05:00,,0812.4,5.00,0.00,21.5,20.2,00.0,30.5,23.4,14.8,0000.0,0000.84,0002.49,0000.29
2022-12-02 14:06:00,,0812.3,5.00,0.00,21.5,20.1,00.0,30.5,23.4,14.7,0000.0,0000.87,0002.57,0000.29
2022-12-02 14:07:00,,0812.3,5.00,0.00,21.5,20.1,00.0,30.5,23.3,14.8,0000.0,0000.87,0002.53,0000.29
2022-12-02 14:08:00,,0812.3,4.99,0.00,21.5,20.1,00.0,30.5,23.3,14.9,0000.0,0000.86,0002.45,0000.29
2022-12-02 14:09:00,,0812.3,4.99,0.00,21.5,20.1,00.0,30.5,23.2,14.6,0000.0,0000.87,0002.54,0000.29
2022-12-02 14:10:00,,0812.3,5.00,0.00,21.5,20.1,00.0,30.5,23.2,14.3,0000.0,0000.87,0002.57,0000.29
2022-12-02 14:11:00,,0812.3,5.02,0.00,21.5,20.1,00.0,30.4,23.2,14.4,0000.0,0000.87,0002.49,0000.30
2022-12-02 14:12:00,,0812.3,5.01,0.00,21.5,20.1,00.0,30.4,23.2,14.5,0000.0,0000.85,0002.19,0000.30
2022-12-02 14:13:00,,0812.3,4.99,0.00,21.5,20.1,00.0,30.4,23.2,14.5,0000.0,0000.80,0002.03,0000.29
2022-12-02 14:14:00,,0812.4,4.99,0.00,21.4,20.1,00.0,30.4,23.2,14.4,0000.0,0000.75,0001.84,0000.30
2022-12-02 14:15:00,,0812.4,5.01,0.00,21.4,20.0,00.0,30.4,23.2,14.8,0000.0,0000.68,0001.63,0000.29
2022-12-02 14:16:00,,0812.5,5.01,0.00,21.4,20.0,00.0,30.4,23.2,14.8,0000.0,0000.65,0001.49,0000.29
2022-12-02 14:17:00,,0812.5,5.00,0.00,21.4,20.0,00.0,30.4,23.2,14.9,0000.0,0000.63,0001.47,0000.29
2022-12-02 14:18:00,,0812.4,5.00,0.00,21.4,20.0,00.0,30.4,23.2,14.9,0000.0,0000.62,0001.48,0000.28
2022-12-02 14:19:00,,0812.4,4.99,0.00,21.4,20.0,00.0,30.4,23.2,14.9,0000.0,0000.62,0001.67,0000.28
2022-12-02 14:20:00,,0812.5,4.99,0.00,21.4,19.9,00.0,30.4,23.2,14.7,0000.0,0000.60,0001.56,0000.27
2022-12-02 14:21:00,,0812.5,5.00,0.00,21.4,19.9,00.0,30.4,23.2,14.8,0000.0,0000.62,0001.64,0000.27
2022-12-02 14:22:00,,0812.5,5.00,0.00,21.4,19.9,00.0,30.4,23.2,14.8,0000.0,0000.65,0003.02,0000.27
2022-12-02 14:23:00,,0812.5,5.00,0.00,21.4,19.9,00.0,30.4,23.2,14.9,0000.0,0000.67,0003.07,0000.28
2022-12-02 14:24:00,,0812.4,5.00,0.00,21.3,19.9,00.0,30.4,23.1,14.8,0000.0,0000.69,0003.10,0000.28
2022-12-02 14:25:00,,0812.4,5.00,0.00,21.3,19.8,00.0,30.4,23.1,14.6,0000.0,0000.71,0003.12,0000.27
2022-12-02 14:26:00,,0812.4,5.00,0.00,21.3,19.8,00.0,30.3,23.1,14.8,0000.0,0000.75,0003.22,0000.27
2022-12-02 14:27:00,,0812.5,5.00,0.00,21.3,19.8,00.0,30.3,23.1,14.8,0000.0,0000.76,0003.67,0000.28
2022-12-02 14:28:00,,0812.4,5.00,0.00,21.3,19.8,00.0,30.3,23.0,14.7,0000.0,0000.77,0005.07,0000.27
2022-12-02 14:29:00,,0812.4,5.00,0.00,21.3,19.8,00.0,30.3,23.0,15.0,0000.0,0000.78,0005.02,0000.28
2022-12-02 14:30:00,,0812.4,5.00,0.00,21.2,19.7,00.0,30.3,23.0,15.1,0000.0,0000.74,0004.76,0000.27
2022-12-02 14:31:00,,0812.5,5.00,0.00,21.2,19.8,00.0,30.3,23.0,14.9,0000.0,0000.72,0004.78,0000.27
2022-12-02 14:32:00,,0812.5,5.00,0.00,21.2,19.8,00.0,30.3,23.0,14.9,0000.0,0000.69,0005.00,0000.27
2022-12-02 14:33:00,,0812.5,5.00,0.00,21.3,19.9,00.0,30.3,23.0,15.1,0000.0,0000.65,0004.88,0000.27
2022-12-02 14:34:00,,0812.6,5.00,0.00,21.3,19.9,00.0,30.3,23.1,15.1,0000.0,0000.64,0004.83,0000.26
2022-12-02 14:35:00,,0812.6,4.99,0.00,21.3,19.9,00.0,30.3,23.1,14.9,0000.0,0000.62,0004.78,0000.26
2022-12-02 14:36:00,,0812.6,5.00,0.00,21.3,19.9,00.0,30.3,23.1,14.5,0000.0,0000.61,0004.76,0000.26
2022-12-02 14:37:00,,0812.7,5.00,0.00,21.3,19.9,00.0,30.3,23.1,14.7,0000.0,0000.55,0004.62,0000.26
2022-12-02 14:38:00,,0812.7,5.00,0.00,21.2,19.9,00.0,30.2,23.1,14.6,0000.0,0000.55,0004.33,0000.25
2022-12-02 14:39:00,,0812.6,5.00,0.00,21.2,19.8,00.0,30.2,23.0,14.6,0000.0,0000.53,0002.70,0000.24
2022-12-02 14:40:00,,0812.7,5.00,0.00,21.2,19.8,00.0,30.2,23.0,15.1,0000.0,0000.55,0002.75,0000.23
2022-12-02 14:41:00,,0812.7,5.00,0.00,21.2,19.9,00.0,30.2,23.0,15.0,0000.0,0000.59,0002.98,0000.23
2022-12-02 14:42:00,,0812.7,5.01,0.00,21.2,19.8,00.0,30.2,23.0,14.7,0000.0,0000.64,0003.14,0000.24
2022-12-02 14:43:00,,0812.7,5.00,0.00,21.2,19.8,00.0,30.2,23.0,14.9,0000.0,0000.64,0002.79,0000.23
2022-12-02 14:44:00,,0812.6,5.00,0.00,21.2,19.8,00.0,30.2,23.0,14.8,0000.0,0000.62,0001.53,0000.23
2022-12-02 14:45:00,,0812.7,5.00,0.00,21.2,19.9,00.0,30.2,23.0,14.8,0000.0,0000.59,0001.48,0000.23
2022-12-02 14:46:00,,0812.7,4.99,0.00,21.2,19.9,00.0,30.2,23.0,15.1,0000.0,0000.60,0001.51,0000.23
2022-12-02 14:47:00,,0812.5,5.00,0.00,21.2,19.9,00.0,30.2,23.0,14.9,0000.0,0000.58,0001.48,0000.23
2022-12-02 14:48:00,,0812.5,5.00,0.00,21.2,19.9,00.0,30.2,23.0,14.7,0000.0,0000.61,0001.71,0000.23
2022-12-02 14:49:00,,0812.5,5.00,0.00,21.2,19.9,00.0,30.2,23.0,14.7,0000.0,0000.60,0001.68,0000.22
2022-12-02 14:50:00,,0812.5,5.00,0.00,21.2,19.9,00.0,30.1,23.0,14.7,0000.0,0000.61,0001.78,0000.22
2022-12-02 14:51:00,,0812.6,5.00,0.00,21.2,20.0,00.0,30.2,23.0,15.1,0000.0,0000.61,0001.87,0000.23
2022-12-02 14:52:00,,0812.6,5.00,0.00,21.2,20.0,00.0,30.2,23.0,15.3,0000.0,0000.57,0001.84,0000.22
2022-12-02 14:53:00,,0812.6,5.00,0.00,21.2,20.0,00.0,30.2,23.0,15.5,0000.0,0000.54,0001.74,0000.22
2022-12-02 14:54:00,,0812.6,5.00,0.00,21.2,20.0,00.0,30.1,23.0,15.3,0000.0,0000.53,0002.16,0000.22
2022-12-02 14:55:00,,0812.6,5.00,0.00,21.2,20.0,00.0,30.1,23.0,15.4,0000.0,0000.55,0002.42,0000.21
2022-12-02 14:56:00,,0812.6,5.00,0.00,21.2,20.0,00.0,30.1,23.0,15.6,0000.0,0000.58,0002.52,0000.22
2022-12-02 14:57:00,,0812.7,5.00,0.00,21.2,20.0,00.0,30.1,23.0,15.1,0000.0,0000.58,0002.54,0000.21
2022-12-02 14:58:00,,0812.7,5.00,0.00,21.2,20.0,00.0,30.2,23.0,15.5,0000.0,0000.60,0002.61,0000.21
2022-12-02 14:59:00,,0812.8,5.00,0.00,21.2,20.0,00.0,30.1,23.0,15.8,0000.0,0000.63,0002.49,0000.21
